YAMAL 300K

Last updated on Mon Jun 22 2026 00:03:04 GMT+0000 (Coordinated Universal Time)

1 38978U 12061B 26172.52058681 .00000070 00000+0 00000+0 0 9993 2 38978 0.0131 275.5126 0001182 348.7490 15.8095 1.00269991 49678
UTC large
Height (km)
Speed (km/s)
/
Latitude / Longitude
Inclination (degrees)
Orbital Period (minutes)
Azimuth
Elevation
Range (km)
Doppler Factor

Next 0 passes for location: London (51.5072 / 0.1276)

No passes found over London.
YAMAL 300K